| time (UTC) | temp C | wind direction | speed KPH | gust KPH | rain 1hr cm | rain 24hr cm | rain mn cm | humidity % | barometer mb |
| 20260904124316 | 32 | 202 | 4.8 | 14.5 | 0.00 | 1.32 | 0.00 | 32 | 1014.6 |
| 20260904123816 | 32 | 260 | 4.8 | 11.3 | 0.00 | 1.32 | 0.00 | 34 | 1014.8 |
| 20260904123313 | 32 | 220 | 6.4 | 16.1 | 0.00 | 1.32 | 0.00 | 34 | 1014.8 |
| 20260904122814 | 32 | 194 | 6.4 | 16.1 | 0.00 | 1.32 | 0.00 | 34 | 1014.8 |
| 20260904122314 | 32 | 252 | 6.4 | 16.1 | 0.00 | 1.32 | 0.00 | 32 | 1014.8 |
| 20260904121813 | 32 | 256 | 6.4 | 12.9 | 0.00 | 1.32 | 0.00 | 32 | 1014.9 |
| 20260904121312 | 32 | 264 | 4.8 | 12.9 | 0.00 | 1.32 | 0.00 | 32 | 1015.0 |
| 20260904120812 | 32 | 207 | 6.4 | 12.9 | 0.00 | 1.32 | 0.00 | 33 | 1015.1 |
| 20260904120312 | 32 | 186 | 6.4 | 12.9 | 0.00 | 1.32 | 0.00 | 33 | 1015.2 |
| 20260904115812 | 32 | 259 | 6.4 | 12.9 | 0.00 | 1.32 | 0.00 | 31 | 1015.2 |
| 20260904115312 | 32 | 247 | 6.4 | 12.9 | 0.00 | 1.32 | 0.00 | 33 | 1015.2 |
| 20260904114812 | 32 | 258 | 6.4 | 12.9 | 0.00 | 1.32 | 0.00 | 35 | 1015.3 |
| 20260904114312 | 32 | 285 | 4.8 | 12.9 | 0.00 | 1.32 | 0.00 | 33 | 1015.3 |
| 20260904114035 | 32 | 323 | 6.4 | 12.9 | 0.00 | 1.32 | 0.00 | 30 | 1015.4 |
| 20260904113312 | 32 | 248 | 8.0 | 11.3 | 0.00 | 1.32 | 0.00 | 30 | 1015.4 |
| 20260904112811 | 31 | 273 | 8.0 | 14.5 | 0.00 | 1.32 | 0.00 | 32 | 1015.5 |
| 20260904112311 | 31 | 255 | 6.4 | 14.5 | 0.00 | 1.32 | 0.00 | 34 | 1015.5 |
| 20260904112258 | 31 | 242 | 8.0 | 12.9 | 0.00 | 1.32 | 0.00 | 33 | 1015.4 |
| 20260904111312 | 31 | 271 | 8.0 | 14.5 | 0.00 | 1.32 | 0.00 | 32 | 1015.5 |
| 20260904111029 | 31 | 268 | 8.0 | 14.5 | 0.00 | 1.32 | 0.00 | 33 | 1015.6 |
| 20260904110312 | 31 | 261 | 8.0 | 12.9 | 0.00 | 1.32 | 0.00 | 33 | 1015.6 |
| 20260904105812 | 31 | 273 | 8.0 | 12.9 | 0.00 | 1.32 | 0.00 | 35 | 1015.6 |
| 20260904105311 | 31 | 263 | 6.4 | 11.3 | 0.00 | 1.32 | 0.00 | 34 | 1015.8 |
| 20260904104811 | 31 | 269 | 6.4 | 11.3 | 0.00 | 1.32 | 0.00 | 37 | 1015.8 |
| 20260904104312 | 31 | 255 | 6.4 | 12.9 | 0.00 | 1.32 | 0.00 | 38 | 1015.8 |
| 20260904103812 | 31 | 262 | 6.4 | 12.9 | 0.00 | 1.32 | 0.00 | 38 | 1015.9 |
| 20260904103312 | 31 | 292 | 4.8 | 9.7 | 0.00 | 1.32 | 0.00 | 38 | 1015.9 |
| 20260904102811 | 30 | 239 | 4.8 | 9.7 | 0.00 | 1.32 | 0.00 | 38 | 1015.8 |
| 20260904102312 | 30 | 265 | 6.4 | 11.3 | 0.00 | 1.32 | 0.00 | 39 | 1015.8 |
| 20260904101811 | 30 | 255 | 8.0 | 12.9 | 0.00 | 1.32 | 0.00 | 38 | 1015.9 |
| 20260904101312 | 30 | 263 | 6.4 | 12.9 | 0.00 | 1.32 | 0.00 | 38 | 1015.9 |
| 20260904100811 | 30 | 283 | 4.8 | 11.3 | 0.00 | 1.32 | 0.00 | 39 | 1015.9 |
| 20260904100311 | 30 | 252 | 4.8 | 9.7 | 0.00 | 1.32 | 0.00 | 38 | 1016.0 |
| 20260904100030 | 30 | 266 | 3.2 | 8.0 | 0.00 | 1.32 | 0.00 | 39 | 1016.1 |
| 20260904095531 | 30 | 289 | 3.2 | 8.0 | 0.00 | 1.32 | 0.00 | 39 | 1016.2 |
| 20260904094811 | 30 | 252 | 1.6 | 8.0 | 0.00 | 1.32 | 0.00 | 38 | 1016.2 |
| 20260904094311 | 30 | 209 | 3.2 | 6.4 | 0.00 | 1.32 | 0.00 | 39 | 1016.3 |
| 20260904093811 | 29 | 266 | 3.2 | 6.4 | 0.00 | 1.32 | 0.00 | 39 | 1016.3 |
| 20260904093312 | 29 | 217 | 3.2 | 6.4 | 0.00 | 1.32 | 0.00 | 38 | 1016.3 |
| 20260904092811 | 30 | 274 | 3.2 | 8.0 | 0.00 | 1.32 | 0.00 | 38 | 1016.4 |
| 20260904092306 | 29 | 281 | 4.8 | 9.7 | 0.00 | 1.32 | 0.00 | 39 | 1016.4 |
| 20260904091956 | 29 | 271 | 4.8 | 9.7 | 0.00 | 1.32 | 0.00 | 39 | 1016.4 |
| 20260904091840 | 29 | 262 | 4.8 | 9.7 | 0.00 | 1.32 | 0.00 | 39 | 1016.4 |
| 20260904090747 | 29 | 248 | 4.8 | 9.7 | 0.00 | 1.32 | 0.00 | 39 | 1016.5 |
| 20260904090241 | 29 | 313 | 4.8 | 8.0 | 0.00 | 1.32 | 0.00 | 39 | 1016.5 |
| 20260904085742 | 28 | 266 | 4.8 | 9.7 | 0.00 | 1.32 | 0.00 | 39 | 1016.5 |
| 20260904085240 | 28 | 283 | 4.8 | 9.7 | 0.00 | 1.32 | 0.00 | 39 | 1016.6 |
| 20260904084740 | 28 | 286 | 4.8 | 9.7 | 0.00 | 1.32 | 0.00 | 40 | 1016.7 |
| 20260904084239 | 28 | 308 | 6.4 | 12.9 | 0.00 | 1.32 | 0.00 | 41 | 1016.7 |
| 20260904083740 | 28 | 282 | 8.0 | 12.9 | 0.00 | 1.32 | 0.00 | 41 | 1016.9 |
| 20260904083239 | 28 | 289 | 8.0 | 14.5 | 0.00 | 1.32 | 0.00 | 40 | 1016.7 |
| 20260904082740 | 28 | 331 | 8.0 | 16.1 | 0.00 | 1.32 | 0.00 | 43 | 1016.7 |
| 20260904082720 | 28 | 295 | 9.7 | 17.7 | 0.00 | 1.32 | 0.00 | 44 | 1016.7 |
| 20260904081740 | 28 | 298 | 9.7 | 17.7 | 0.00 | 1.32 | 0.00 | 44 | 1016.7 |
| 20260904081240 | 28 | 289 | 12.9 | 22.5 | 0.00 | 1.32 | 0.00 | 46 | 1016.7 |
| 20260904080739 | 28 | 311 | 12.9 | 22.5 | 0.00 | 1.32 | 0.00 | 46 | 1016.9 |
| 20260904080240 | 28 | 295 | 11.3 | 20.9 | 0.00 | 1.32 | 0.00 | 46 | 1016.7 |
| 20260904075740 | 28 | 300 | 8.0 | 20.9 | 0.00 | 1.32 | 0.00 | 47 | 1016.6 |
| 20260904075242 | 28 | 320 | 8.0 | 14.5 | 0.00 | 1.32 | 0.00 | 47 | 1016.6 |
| 20260904074740 | 27 | 321 | 9.7 | 19.3 | 0.00 | 1.32 | 0.00 | 47 | 1016.4 |
| 20260904074233 | 27 | 3 | 9.7 | 19.3 | 0.00 | 1.32 | 0.00 | 47 | 1016.4 |
| 20260904073727 | 27 | 302 | 6.4 | 16.1 | 0.00 | 1.32 | 0.00 | 47 | 1016.3 |
| 20260904073220 | 27 | 301 | 4.8 | 11.3 | 0.00 | 1.32 | 0.00 | 52 | 1016.3 |
| 20260904072714 | 26 | 281 | 6.4 | 14.5 | 0.00 | 1.32 | 0.00 | 56 | 1016.3 |
| 20260904072208 | 26 | 222 | 8.0 | 14.5 | 0.00 | 1.32 | 0.00 | 56 | 1016.4 |
| 20260904071702 | 26 | 289 | 8.0 | 14.5 | 0.00 | 1.32 | 0.00 | 54 | 1016.3 |
| 20260904071156 | 26 | 307 | 6.4 | 12.9 | 0.00 | 1.32 | 0.00 | 56 | 1016.3 |
| 20260904070650 | 26 | 317 | 4.8 | 9.7 | 0.00 | 1.32 | 0.00 | 56 | 1016.3 |
| 20260904070145 | 25 | 259 | 6.4 | 11.3 | 0.00 | 1.32 | 0.00 | 59 | 1016.2 |
| 20260904065859 | 25 | 304 | 8.0 | 14.5 | 0.00 | 1.32 | 0.00 | 58 | 1016.1 |
| 20260904065132 | 25 | 316 | 8.0 | 14.5 | 0.00 | 1.32 | 0.00 | 58 | 1016.1 |
| 20260904064626 | 25 | 328 | 6.4 | 12.9 | 0.00 | 1.32 | 0.00 | 58 | 1016.0 |
| 20260904064120 | 25 | 293 | 6.4 | 12.9 | 0.00 | 1.32 | 0.00 | 59 | 1016.0 |
| 20260904063614 | 25 | 305 | 4.8 | 9.7 | 0.00 | 1.32 | 0.00 | 56 | 1016.0 |
| 20260904063108 | 26 | 290 | 3.2 | 9.7 | 0.00 | 1.32 | 0.00 | 58 | 1016.0 |
| 20260904062602 | 26 | 298 | 4.8 | 9.7 | 0.00 | 1.32 | 0.00 | 58 | 1016.0 |
| 20260904062318 | 26 | 282 | 3.2 | 9.7 | 0.00 | 1.32 | 0.00 | 57 | 1016.0 |
| 20260904061548 | 26 | 355 | 1.6 | 6.4 | 0.00 | 1.32 | 0.00 | 53 | 1016.0 |
| 20260904061043 | 26 | 356 | 3.2 | 9.7 | 0.00 | 1.32 | 0.00 | 53 | 1015.9 |
| 20260904060536 | 25 | 41 | 3.2 | 9.7 | 0.00 | 1.32 | 0.00 | 54 | 1015.8 |
| 20260904060030 | 25 | 312 | 4.8 | 9.7 | 0.00 | 1.32 | 0.00 | 54 | 1015.8 |
| 20260904055523 | 25 | 6 | 6.4 | 9.7 | 0.00 | 1.32 | 0.00 | 55 | 1015.9 |
| 20260904055017 | 25 | 7 | 8.0 | 17.7 | 0.00 | 1.32 | 0.00 | 57 | 1015.9 |
| 20260904054510 | 25 | 35 | 8.0 | 17.7 | 0.00 | 1.32 | 0.00 | 57 | 1015.9 |
| 20260904054005 | 24 | 30 | 3.2 | 12.9 | 0.00 | 1.32 | 0.00 | 60 | 1015.8 |
| 20260904053459 | 24 | 50 | 1.6 | 6.4 | 0.00 | 1.32 | 0.00 | 60 | 1015.9 |
| 20260904052953 | 24 | 353 | 1.6 | 3.2 | 0.00 | 1.32 | 0.00 | 61 | 1015.8 |
| 20260904052446 | 24 | 353 | 3.2 | 6.4 | 0.00 | 1.32 | 0.00 | 62 | 1015.8 |
| 20260904051940 | 24 | 347 | 4.8 | 9.7 | 0.00 | 1.32 | 0.00 | 63 | 1015.8 |
| 20260904051435 | 24 | 20 | 6.4 | 11.3 | 0.00 | 1.32 | 0.00 | 64 | 1015.7 |
| 20260904050929 | 23 | 337 | 8.0 | 12.9 | 0.00 | 1.32 | 0.00 | 65 | 1015.7 |
| 20260904050423 | 23 | 13 | 9.7 | 20.9 | 0.00 | 1.32 | 0.00 | 67 | 1015.8 |
| 20260904045917 | 23 | 346 | 9.7 | 20.9 | 0.00 | 1.32 | 0.00 | 69 | 1015.7 |
| 20260904045411 | 23 | 302 | 9.7 | 16.1 | 0.00 | 1.32 | 0.00 | 74 | 1015.7 |
| 20260904044905 | 23 | 316 | 9.7 | 17.7 | 0.00 | 1.32 | 0.00 | 75 | 1015.7 |
| 20260904044359 | 23 | 303 | 8.0 | 17.7 | 0.00 | 1.32 | 0.00 | 76 | 1015.6 |
| 20260904044125 | 23 | 307 | 8.0 | 16.1 | 0.00 | 1.32 | 0.00 | 77 | 1015.6 |
| 20260904043357 | 23 | 327 | 4.8 | 11.3 | 0.00 | 1.32 | 0.00 | 78 | 1015.6 |
| 20260904043115 | 23 | 275 | 4.8 | 11.3 | 0.00 | 1.32 | 0.00 | 78 | 1015.5 |
| 20260904042616 | 23 | 308 | 6.4 | 11.3 | 0.00 | 1.32 | 0.00 | 77 | 1015.4 |
| 20260904041855 | 23 | 309 | 6.4 | 11.3 | 0.00 | 1.32 | 0.00 | 77 | 1015.4 |
| 20260904041355 | 23 | 310 | 4.8 | 11.3 | 0.00 | 1.32 | 0.00 | 77 | 1015.3 |
| 20260904041120 | 23 | 311 | 6.4 | 12.9 | 0.00 | 1.32 | 0.00 | 78 | 1015.3 |
| 20260904040353 | 23 | 334 | 6.4 | 12.9 | 0.00 | 1.32 | 0.00 | 76 | 1015.3 |
| 20260904035853 | 23 | 301 | 6.4 | 12.9 | 0.00 | 1.32 | 0.00 | 76 | 1015.3 |
| 20260904035353 | 22 | 311 | 6.4 | 12.9 | 0.00 | 1.32 | 0.00 | 79 | 1015.2 |
| 20260904034850 | 22 | 283 | 8.0 | 14.5 | 0.00 | 1.32 | 0.00 | 80 | 1015.1 |
| 20260904034351 | 22 | 302 | 8.0 | 14.5 | 0.00 | 1.32 | 0.00 | 79 | 1015.2 |
| 20260904033851 | 22 | 293 | 6.4 | 14.5 | 0.00 | 1.32 | 0.00 | 78 | 1015.2 |
| 20260904033349 | 23 | 307 | 6.4 | 12.9 | 0.00 | 1.32 | 0.00 | 78 | 1015.1 |
| 20260904032850 | 23 | 310 | 6.4 | 12.9 | 0.00 | 1.32 | 0.00 | 78 | 1015.1 |
| 20260904032349 | 23 | 296 | 4.8 | 11.3 | 0.00 | 1.32 | 0.00 | 76 | 1015.0 |
| 20260904031848 | 23 | 279 | 4.8 | 8.0 | 0.00 | 1.32 | 0.00 | 77 | 1015.0 |
| 20260904031349 | 23 | 301 | 3.2 | 8.0 | 0.00 | 1.32 | 0.00 | 79 | 1015.0 |
| 20260904031104 | 23 | 288 | 3.2 | 6.4 | 0.00 | 1.32 | 0.00 | 81 | 1015.0 |
| 20260904030337 | 23 | 297 | 3.2 | 8.0 | 0.00 | 1.32 | 0.00 | 82 | 1015.0 |
| 20260904025830 | 23 | 307 | 3.2 | 9.7 | 0.00 | 1.32 | 0.00 | 82 | 1015.0 |
| 20260904025324 | 23 | 304 | 6.4 | 11.3 | 0.00 | 1.32 | 0.00 | 82 | 1015.1 |
| 20260904024819 | 23 | 281 | 6.4 | 12.9 | 0.00 | 1.32 | 0.00 | 82 | 1015.1 |
| 20260904024312 | 23 | 293 | 6.4 | 12.9 | 0.00 | 1.32 | 0.00 | 81 | 1015.1 |
| 20260904023806 | 23 | 290 | 4.8 | 9.7 | 0.00 | 1.32 | 0.00 | 81 | 1014.9 |
| 20260904023301 | 23 | 266 | 3.2 | 9.7 | 0.00 | 1.32 | 0.00 | 82 | 1014.9 |
| 20260904022755 | 23 | 258 | 3.2 | 6.4 | 0.00 | 1.32 | 0.00 | 83 | 1014.8 |
| 20260904022249 | 23 | 283 | 3.2 | 8.0 | 0.00 | 1.32 | 0.00 | 83 | 1014.8 |
| 20260904021742 | 23 | 267 | 4.8 | 9.7 | 0.00 | 1.32 | 0.00 | 83 | 1014.8 |
| 20260904021239 | 23 | 281 | 3.2 | 9.7 | 0.00 | 1.32 | 0.00 | 82 | 1014.8 |
| 20260904020739 | 23 | 232 | 1.6 | 4.8 | 0.00 | 1.32 | 0.00 | 81 | 1014.8 |
| 20260904020237 | 23 | 214 | 1.6 | 4.8 | 0.00 | 1.32 | 0.00 | 80 | 1014.8 |
| 20260904015734 | 23 | 197 | 0.0 | 4.8 | 0.00 | 1.32 | 0.00 | 79 | 1014.8 |
| 20260904015234 | 23 | 150 | 0.0 | 3.2 | 0.00 | 1.32 | 0.00 | 78 | 1014.8 |
| 20260904014732 | 23 | 150 | 0.0 | 3.2 | 0.00 | 1.32 | 0.00 | 78 | 1014.8 |
| 20260904014232 | 23 | 200 | 0.0 | 1.6 | 0.00 | 1.32 | 0.00 | 77 | 1014.7 |
| 20260904013732 | 23 | 200 | 0.0 | 1.6 | 0.00 | 1.32 | 0.00 | 77 | 1014.7 |
| 20260904013232 | 23 | 257 | 0.0 | 1.6 | 0.00 | 1.32 | 0.00 | 77 | 1014.7 |
| 20260904012733 | 23 | 257 | 0.0 | 1.6 | 0.00 | 1.32 | 0.00 | 77 | 1014.6 |
| 20260904012232 | 23 | 257 | 0.0 | 1.6 | 0.00 | 1.32 | 0.00 | 76 | 1014.6 |
| 20260904011733 | 23 | 257 | 0.0 | 1.6 | 0.00 | 1.32 | 0.00 | 76 | 1014.6 |
| 20260904011457 | 23 | 257 | 0.0 | 1.6 | 0.00 | 1.32 | 0.00 | 75 | 1014.5 |
| 20260904010728 | 23 | 257 | 0.0 | 1.6 | 0.00 | 1.40 | 0.00 | 74 | 1014.5 |
| 20260904010228 | 23 | 257 | 0.0 | 3.2 | 0.00 | 1.45 | 0.00 | 74 | 1014.5 |
| 20260904010214 | 23 | 257 | 1.6 | 4.8 | 0.00 | 1.45 | 0.00 | 74 | 1014.5 |
| 20260904005447 | 23 | 257 | 3.2 | 4.8 | 0.00 | 1.45 | 0.00 | 74 | 1014.6 |
| 20260904004729 | 23 | 257 | 1.6 | 4.8 | 0.00 | 1.52 | 0.00 | 74 | 1014.6 |
| 20260904004228 | 23 | 271 | 0.0 | 3.2 | 0.00 | 1.55 | 0.00 | 70 | 1014.6 |
| 20260904003728 | 23 | 295 | 0.0 | 1.6 | 0.00 | 1.55 | 0.00 | 70 | 1014.7 |
| 20260904003228 | 23 | 295 | 0.0 | 1.6 | 0.00 | 1.55 | 0.00 | 69 | 1014.5 |
| 20260904002725 | 23 | 295 | 0.0 | 1.6 | 0.00 | 1.55 | 0.00 | 68 | 1014.5 |
| 20260904002225 | 23 | 295 | 0.0 | 1.6 | 0.00 | 1.55 | 0.00 | 68 | 1014.5 |
| 20260904001725 | 23 | 295 | 0.0 | 1.6 | 0.00 | 1.55 | 0.00 | 70 | 1014.6 |
| 20260904001225 | 23 | 295 | 1.6 | 4.8 | 0.00 | 1.55 | 0.00 | 69 | 1014.5 |
| 20260904000725 | 23 | 295 | 3.2 | 6.4 | 0.00 | 1.55 | 0.00 | 71 | 1014.4 |
| 20260904000226 | 23 | 265 | 1.6 | 6.4 | 0.00 | 1.55 | 0.00 | 70 | 1014.4 |
| 20260903235947 | 23 | 89 | 0.0 | 1.6 | 0.00 | 1.55 | 0.00 | 70 | 1014.4 |
| 20260903235225 | 23 | 89 | 1.6 | 3.2 | 0.00 | 1.55 | 0.00 | 69 | 1014.4 |
| 20260903234723 | 23 | 89 | 1.6 | 3.2 | 0.00 | 1.55 | 0.00 | 69 | 1014.4 |
| 20260903234440 | 23 | 89 | 1.6 | 3.2 | 0.00 | 1.55 | 0.00 | 71 | 1014.4 |
| 20260903233945 | 23 | 105 | 1.6 | 4.8 | 0.00 | 1.55 | 0.00 | 72 | 1014.5 |
| 20260903233211 | 23 | 107 | 3.2 | 4.8 | 0.00 | 1.55 | 0.00 | 74 | 1014.5 |
| 20260903232704 | 22 | 102 | 3.2 | 6.4 | 0.00 | 1.55 | 0.00 | 77 | 1014.6 |
| 20260903232159 | 22 | 93 | 1.6 | 6.4 | 0.00 | 1.55 | 0.00 | 80 | 1014.7 |
| 20260903231656 | 22 | 91 | 3.2 | 6.4 | 0.00 | 1.55 | 0.00 | 83 | 1014.6 |
| 20260903231629 | 21 | 96 | 3.2 | 6.4 | 0.00 | 1.55 | 0.00 | 90 | 1014.7 |
| 20260903230641 | 21 | 82 | 1.6 | 4.8 | 0.00 | 1.55 | 0.00 | 92 | 1014.8 |
| 20260903230135 | 21 | 105 | 0.0 | 3.2 | 0.00 | 1.55 | 0.00 | 94 | 1014.9 |
| 20260903225848 | 21 | 105 | 1.6 | 4.8 | 0.00 | 1.55 | 0.00 | 94 | 1014.8 |
| 20260903225127 | 21 | 105 | 3.2 | 8.0 | 0.00 | 1.55 | 0.00 | 94 | 1014.9 |
| 20260903224617 | 21 | 91 | 4.8 | 8.0 | 0.00 | 1.55 | 0.00 | 94 | 1014.9 |
| 20260903224111 | 21 | 96 | 3.2 | 8.0 | 0.00 | 1.55 | 0.00 | 94 | 1014.9 |
| 20260903223833 | 21 | 96 | 3.2 | 8.0 | 0.00 | 1.55 | 0.00 | 94 | 1015.0 |
| 20260903223319 | 21 | 124 | 1.6 | 4.8 | 0.00 | 1.55 | 0.00 | 95 | 1015.0 |
| 20260903222553 | 21 | 120 | 1.6 | 6.4 | 0.00 | 1.55 | 0.00 | 95 | 1015.0 |
| 20260903222047 | 21 | 96 | 3.2 | 6.4 | 0.00 | 1.55 | 0.00 | 95 | 1015.0 |
| 20260903221541 | 22 | 146 | 3.2 | 8.0 | 0.00 | 1.57 | 0.00 | 95 | 1015.0 |
| 20260903221035 | 22 | 155 | 3.2 | 8.0 | 0.00 | 1.63 | 0.00 | 96 | 1015.0 |
| 20260903220529 | 22 | 148 | 1.6 | 3.2 | 0.00 | 1.63 | 0.00 | 96 | 1015.1 |
| 20260903220023 | 22 | 101 | 1.6 | 3.2 | 0.00 | 1.65 | 0.00 | 96 | 1015.0 |
| 20260903220008 | 21 | 101 | 1.6 | 3.2 | 0.00 | 1.68 | 0.00 | 95 | 1015.0 |
| 20260903215011 | 21 | 101 | 3.2 | 4.8 | 0.00 | 1.73 | 0.00 | 96 | 1014.9 |
| 20260903214730 | 21 | 101 | 1.6 | 4.8 | 0.00 | 1.80 | 0.00 | 96 | 1014.9 |
| 20260903214221 | 21 | 101 | 0.0 | 3.2 | 0.00 | 1.88 | 0.00 | 96 | 1014.9 |
| 20260903213453 | 21 | 101 | 0.0 | 1.6 | 0.00 | 1.91 | 0.00 | 96 | 1014.9 |
| 20260903212947 | 21 | 101 | 0.0 | 1.6 | 0.00 | 1.91 | 0.00 | 96 | 1014.9 |
| 20260903212441 | 21 | 101 | 0.0 | 3.2 | 0.00 | 1.91 | 0.00 | 96 | 1014.8 |
| 20260903212154 | 21 | 101 | 1.6 | 3.2 | 0.00 | 1.91 | 0.00 | 96 | 1014.8 |
| 20260903211429 | 21 | 101 | 0.0 | 3.2 | 0.00 | 1.91 | 0.00 | 96 | 1014.7 |
| 20260903210923 | 21 | 101 | 0.0 | 3.2 | 0.00 | 1.91 | 0.00 | 96 | 1014.9 |
| 20260903210417 | 21 | 101 | 0.0 | 3.2 | 0.00 | 1.91 | 0.00 | 96 | 1014.8 |
| 20260903205911 | 21 | 101 | 1.6 | 3.2 | 0.00 | 1.91 | 1.91 | 95 | 1014.8 |
| 20260903205405 | 21 | 101 | 1.6 | 4.8 | 0.00 | 1.91 | 1.91 | 96 | 1014.7 |
| 20260903204900 | 21 | 103 | 1.6 | 4.8 | 0.00 | 1.91 | 1.91 | 95 | 1014.7 |
| 20260903204625 | 21 | 79 | 1.6 | 3.2 | 0.00 | 1.91 | 1.91 | 96 | 1014.6 |
| 20260903203847 | 21 | 79 | 1.6 | 4.8 | 0.00 | 1.91 | 1.91 | 95 | 1014.7 |
| 20260903203341 | 21 | 79 | 1.6 | 4.8 | 0.00 | 1.91 | 1.91 | 96 | 1014.6 |
| 20260903202835 | 21 | 87 | 1.6 | 4.8 | 0.00 | 1.91 | 1.91 | 96 | 1014.6 |
| 20260903202553 | 21 | 77 | 1.6 | 3.2 | 0.00 | 1.91 | 1.91 | 96 | 1014.5 |
| 20260903201823 | 21 | 79 | 1.6 | 3.2 | 0.00 | 1.91 | 1.91 | 96 | 1014.7 |
| 20260903201317 | 21 | 79 | 1.6 | 3.2 | 0.00 | 1.91 | 1.91 | 96 | 1014.6 |
| 20260903200811 | 21 | 110 | 0.0 | 1.6 | 0.00 | 1.91 | 1.91 | 96 | 1014.5 |
| 20260903200305 | 21 | 110 | 0.0 | 4.8 | 0.00 | 1.91 | 1.91 | 96 | 1014.5 |
| 20260903195759 | 21 | 110 | 1.6 | 4.8 | 0.00 | 1.91 | 1.91 | 96 | 1014.6 |
| 20260903195514 | 21 | 105 | 1.6 | 4.8 | 0.00 | 1.91 | 1.91 | 96 | 1014.4 |
| 20260903194747 | 21 | 93 | 1.6 | 3.2 | 0.00 | 1.91 | 1.91 | 96 | 1014.5 |
| 20260903194241 | 21 | 98 | 1.6 | 3.2 | 0.00 | 1.91 | 1.91 | 96 | 1014.6 |
| 20260903193735 | 22 | 115 | 1.6 | 3.2 | 0.00 | 1.91 | 1.91 | 96 | 1014.5 |
| 20260903193229 | 21 | 256 | 0.0 | 3.2 | 0.00 | 1.91 | 1.91 | 96 | 1014.6 |
| 20260903192724 | 21 | 256 | 0.0 | 0.0 | 0.00 | 1.91 | 1.91 | 96 | 1014.7 |
| 20260903192218 | 21 | 256 | 0.0 | 0.0 | 0.00 | 1.91 | 1.91 | 96 | 1014.7 |
| 20260903191933 | 21 | 256 | 1.6 | 3.2 | 0.00 | 1.91 | 1.91 | 96 | 1014.8 |
| 20260903191205 | 21 | 256 | 1.6 | 4.8 | 0.03 | 1.91 | 1.91 | 96 | 1014.8 |
| 20260903190923 | 21 | 358 | 1.6 | 6.4 | 0.03 | 1.91 | 1.91 | 96 | 1014.7 |
| 20260903190153 | 21 | 114 | 4.8 | 14.5 | 0.08 | 1.91 | 1.91 | 96 | 1014.5 |
| 20260903185647 | 21 | 103 | 8.0 | 14.5 | 0.10 | 1.91 | 1.91 | 95 | 1014.5 |
| 20260903185141 | 21 | 98 | 8.0 | 12.9 | 0.13 | 1.91 | 1.91 | 96 | 1014.5 |
| 20260903185121 | 21 | 71 | 8.0 | 17.7 | 0.15 | 1.91 | 1.91 | 96 | 1014.6 |
| 20260903184129 | 21 | 91 | 8.0 | 17.7 | 0.33 | 1.91 | 1.91 | 96 | 1014.4 |
| 20260903183623 | 21 | 98 | 8.0 | 12.9 | 0.51 | 1.91 | 1.91 | 96 | 1014.5 |
| 20260903183347 | 21 | 100 | 3.2 | 11.3 | 0.69 | 1.91 | 1.91 | 96 | 1014.6 |
| 20260903182611 | 21 | 81 | 1.6 | 4.8 | 1.27 | 1.91 | 1.91 | 96 | 1014.8 |
| 20260903182108 | 21 | 84 | 1.6 | 8.0 | 1.32 | 1.91 | 1.91 | 96 | 1014.9 |
| 20260903181559 | 21 | 98 | 4.8 | 12.9 | 1.32 | 1.91 | 1.91 | 96 | 1014.7 |
| 20260903181054 | 20 | 147 | 4.8 | 12.9 | 1.30 | 1.88 | 1.88 | 95 | 1014.6 |
| 20260903180548 | 20 | 191 | 3.2 | 11.3 | 1.30 | 1.88 | 1.88 | 95 | 1014.8 |
| 20260903180041 | 20 | 219 | 4.8 | 12.9 | 1.24 | 1.83 | 1.83 | 95 | 1014.8 |
| 20260903175757 | 20 | 129 | 4.8 | 12.9 | 1.22 | 1.80 | 1.80 | 95 | 1015.0 |
| 20260903175029 | 20 | 141 | 3.2 | 11.3 | 1.19 | 1.78 | 1.78 | 95 | 1015.0 |
| 20260903174523 | 20 | 150 | 4.8 | 11.3 | 1.12 | 1.70 | 1.70 | 94 | 1015.0 |
| 20260903174022 | 20 | 284 | 4.8 | 20.9 | 0.97 | 1.55 | 1.55 | 93 | 1015.8 |
| 20260903173520 | 21 | 289 | 16.1 | 51.5 | 0.76 | 1.35 | 1.37 | 91 | 1016.2 |
| 20260903173017 | 21 | 223 | 22.5 | 51.5 | 0.53 | 1.12 | 1.12 | 86 | 1016.6 |
| 20260903172518 | 26 | 359 | 14.5 | 40.2 | 0.03 | 0.61 | 0.61 | 60 | 1015.5 |
| 20260903172246 | 29 | 306 | 6.4 | 24.1 | 0.00 | 0.58 | 0.58 | 51 | 1014.4 |
| 20260903171516 | 29 | 334 | 6.4 | 12.9 | 0.00 | 0.58 | 0.58 | 48 | 1014.3 |
| 20260903171014 | 29 | 83 | 8.0 | 16.1 | 0.00 | 0.58 | 0.58 | 49 | 1013.9 |
| 20260903170515 | 29 | 105 | 6.4 | 16.1 | 0.00 | 0.58 | 0.58 | 49 | 1013.6 |
| 20260903170237 | 30 | 160 | 4.8 | 12.9 | 0.00 | 0.58 | 0.58 | 49 | 1013.3 |
| 20260903165731 | 30 | 113 | 6.4 | 14.5 | 0.00 | 0.58 | 0.58 | 49 | 1013.2 |
| 20260903165012 | 30 | 152 | 8.0 | 17.7 | 0.00 | 0.58 | 0.58 | 48 | 1012.9 |
| 20260903164513 | 30 | 147 | 6.4 | 17.7 | 0.00 | 0.58 | 0.58 | 47 | 1013.0 |
| 20260903164013 | 30 | 275 | 6.4 | 19.3 | 0.00 | 0.58 | 0.58 | 47 | 1013.0 |
| 20260903163512 | 30 | 148 | 6.4 | 19.3 | 0.00 | 0.58 | 0.58 | 47 | 1012.9 |
| 20260903163012 | 30 | 153 | 6.4 | 16.1 | 0.00 | 0.58 | 0.58 | 47 | 1012.9 |
| 20260903162512 | 31 | 129 | 4.8 | 11.3 | 0.00 | 0.58 | 0.58 | 46 | 1012.9 |
| 20260903162012 | 31 | 176 | 3.2 | 11.3 | 0.00 | 0.58 | 0.58 | 46 | 1013.1 |
| 20260903161512 | 31 | 228 | 3.2 | 11.3 | 0.00 | 0.58 | 0.58 | 46 | 1013.1 |
| 20260903161225 | 31 | 146 | 3.2 | 11.3 | 0.00 | 0.58 | 0.58 | 46 | 1013.0 |
| 20260903160508 | 31 | 219 | 4.8 | 11.3 | 0.00 | 0.58 | 0.58 | 46 | 1013.0 |
| 20260903160008 | 31 | 183 | 4.8 | 12.9 | 0.00 | 0.58 | 0.58 | 44 | 1012.8 |
| 20260903155505 | 31 | 207 | 4.8 | 16.1 | 0.00 | 0.58 | 0.58 | 46 | 1012.7 |
| 20260903155005 | 31 | 200 | 6.4 | 16.1 | 0.00 | 0.58 | 0.58 | 46 | 1012.7 |
| 20260903154504 | 31 | 229 | 6.4 | 12.9 | 0.00 | 0.58 | 0.58 | 48 | 1012.7 |
| 20260903154005 | 31 | 145 | 6.4 | 11.3 | 0.00 | 0.58 | 0.58 | 47 | 1012.7 |
| 20260903153505 | 31 | 157 | 6.4 | 14.5 | 0.00 | 0.58 | 0.58 | 46 | 1012.5 |
| 20260903153227 | 32 | 198 | 6.4 | 14.5 | 0.00 | 0.58 | 0.58 | 45 | 1012.5 |
| 20260903152504 | 32 | 226 | 6.4 | 12.9 | 0.00 | 0.58 | 0.58 | 44 | 1012.5 |
| 20260903152226 | 32 | 186 | 6.4 | 14.5 | 0.00 | 0.58 | 0.58 | 44 | 1012.5 |
| 20260903151724 | 32 | 205 | 6.4 | 16.1 | 0.00 | 0.58 | 0.58 | 45 | 1012.4 |
| 20260903151005 | 32 | 203 | 8.0 | 16.1 | 0.00 | 0.58 | 0.58 | 47 | 1012.3 |
| 20260903150504 | 32 | 214 | 6.4 | 16.1 | 0.00 | 0.58 | 0.58 | 44 | 1012.3 |
| 20260903150228 | 32 | 210 | 6.4 | 14.5 | 0.00 | 0.58 | 0.58 | 49 | 1012.2 |
| 20260903145730 | 32 | 198 | 4.8 | 14.5 | 0.00 | 0.58 | 0.58 | 52 | 1012.3 |
| 20260903145005 | 32 | 186 | 4.8 | 12.9 | 0.00 | 0.58 | 0.58 | 52 | 1012.2 |
| 20260903144719 | 31 | 207 | 6.4 | 12.9 | 0.00 | 0.58 | 0.58 | 53 | 1012.1 |
| 20260903143953 | 31 | 255 | 8.0 | 14.5 | 0.00 | 0.58 | 0.58 | 54 | 1012.1 |
| 20260903143454 | 31 | 246 | 6.4 | 14.5 | 0.00 | 0.58 | 0.58 | 52 | 1012.1 |
| 20260903143214 | 32 | 215 | 4.8 | 12.9 | 0.00 | 0.58 | 0.58 | 51 | 1012.1 |
| 20260903142451 | 32 | 143 | 6.4 | 14.5 | 0.00 | 0.58 | 0.58 | 49 | 1012.2 |
| 20260903141950 | 31 | 239 | 8.0 | 17.7 | 0.00 | 0.58 | 0.58 | 51 | 1012.2 |
| 20260903141709 | 31 | 242 | 9.7 | 17.7 | 0.00 | 0.58 | 0.58 | 53 | 1012.3 |
| 20260903140950 | 31 | 252 | 8.0 | 16.1 | 0.00 | 0.58 | 0.58 | 50 | 1012.4 |
| 20260903140450 | 31 | 257 | 8.0 | 16.1 | 0.00 | 0.58 | 0.58 | 49 | 1012.5 |
| 20260903135948 | 32 | 276 | 8.0 | 16.1 | 0.00 | 0.58 | 0.58 | 52 | 1012.5 |
| 20260903135703 | 32 | 250 | 8.0 | 14.5 | 0.00 | 0.58 | 0.58 | 49 | 1012.5 |
| 20260903134948 | 32 | 255 | 8.0 | 17.7 | 0.00 | 0.58 | 0.58 | 49 | 1012.5 |
| 20260903134939 | 32 | 176 | 6.4 | 17.7 | 0.00 | 0.58 | 0.58 | 50 | 1012.6 |
| 20260903134438 | 32 | 206 | 6.4 | 16.1 | 0.00 | 0.58 | 0.58 | 51 | 1012.7 |
| 20260903133447 | 32 | 212 | 6.4 | 16.1 | 0.00 | 0.58 | 0.58 | 52 | 1012.7 |
| 20260903132944 | 32 | 255 | 6.4 | 16.1 | 0.00 | 0.58 | 0.58 | 51 | 1012.7 |
| 20260903132707 | 31 | 257 | 9.7 | 19.3 | 0.00 | 0.58 | 0.58 | 53 | 1012.7 |
| 20260903131944 | 31 | 292 | 9.7 | 19.3 | 0.00 | 0.58 | 0.58 | 52 | 1012.7 |
| 20260903131701 | 31 | 250 | 9.7 | 16.1 | 0.00 | 0.58 | 0.58 | 50 | 1012.7 |
| 20260903130944 | 31 | 266 | 9.7 | 19.3 | 0.00 | 0.58 | 0.58 | 49 | 1012.8 |
| 20260903130443 | 31 | 259 | 11.3 | 19.3 | 0.00 | 0.58 | 0.58 | 50 | 1012.8 |
| 20260903125943 | 31 | 233 | 11.3 | 19.3 | 0.00 | 0.58 | 0.58 | 50 | 1012.9 |
| 20260903125444 | 31 | 258 | 9.7 | 19.3 | 0.00 | 0.58 | 0.58 | 49 | 1012.8 |
| 20260903125200 | 31 | 245 | 8.0 | 17.7 | 0.00 | 0.58 | 0.58 | 49 | 1012.9 |